Regional Weather Roundup
Issued by NWS

Home | Current Version | Previous Version | Text Only | Print | Product List | Glossary Off
Versions: 1 2 3 4 5 6 7 8 9 10 11 12 13 14 15 16 17 18 19 20 21 22 23 24 25 26 27 28 29 30 31 32 33 34 35 36 37 38 39 40 41 42 43 44 45 46 47 48 49 50

000
ASUS43 KLSX 252359
RWRMO

WEATHER SUMMARY FOR MISSOURI
NATIONAL WEATHER SERVICE SPRINGFIELD MO
700 PM CDT SAT APR 25 2015

NOTE: "FAIR" INDICATES FEW OR NO CLOUDS BELOW 12,000 FEET WITH NO
       SIGNIFICANT WEATHER AND/OR OBSTRUCTIONS TO VISIBILITY.
       CURRENT SKY AND/OR WEATHER CONDITIONS ARE NOT AVAILABLE FOR
       CHILLICOTHE AND FARMINGTON.

MOZ001>031-035>038-043-044-053-054-260100-
...NORTHERN AND WESTERN MISSOURI...

CITY           SKY/WX    TMP DP  RH WIND       PRES   REMARKS
KANSAS CTY INT CLOUDY    50  48  93 N14       29.70R
6HR MIN TEMP:  50; 6HR MAX TEMP:  59; 6HR PCP: TRACE;

KANSAS C DTWN  CLOUDY    53  48  83 N10       29.70R
6HR MIN TEMP:  53; 6HR MAX TEMP:  66;

LEE`S SUMMIT   CLOUDY    51  49  92 N15       29.69R FOG
6HR MIN TEMP:  51; 6HR MAX TEMP:  64; 6HR PCP:  0.04;

ST JOSEPH      CLOUDY    50  46  86 N13       29.73R
6HR MIN TEMP:  50; 6HR MAX TEMP:  56;

CHILLICOTHE      N/A     52  48  86 N7        29.71R
6HR MIN TEMP:  51; 6HR MAX TEMP:  55; 6HR PCP:  0.03;


$$
MOZ066>068-077>081-088>096-101>105-260100-
...SOUTHWEST MISSOURI...

CITY           SKY/WX    TMP DP  RH WIND       PRES   REMARKS
SPRINGFIELD    MOSUNNY   68  52  56 NW14G21   29.60R
6HR MIN TEMP:  68; 6HR MAX TEMP:  74;

JOPLIN         SUNNY     69  54  58 NW12G23   29.63R
6HR MIN TEMP:  69; 6HR MAX TEMP:  76;


$$
MOZ032>034-039>042-045>050-055>058-069>072-260100-
...CENTRAL MISSOURI...

CITY           SKY/WX    TMP DP  RH WIND       PRES   REMARKS
COLUMBIA       CLOUDY    56  54  93 NE12      29.62R
6HR MIN TEMP:  56; 6HR MAX TEMP:  70; 6HR PCP:  0.09;

JEFFERSON CITY CLOUDY    61  56  83 N17       29.59R
6HR MIN TEMP:  61; 6HR MAX TEMP:  72; 6HR PCP:  0.04;

ROLLA          CLOUDY    63  56  78 NW8       29.56R
6HR MIN TEMP:  63; 6HR MAX TEMP:  73; 6HR PCP: TRACE;

SEDALIA        CLOUDY    57  53  86 N18       29.65R
6HR MIN TEMP:  57; 6HR MAX TEMP:  70; 6HR PCP:  0.08;

OSAGE BEACH    CLOUDY    61  55  82 W6        29.59R

$$
MOZ051-052-059>065-260100-
...EAST CENTRAL MISSOURI...

CITY           SKY/WX    TMP DP  RH WIND       PRES   REMARKS
ST LOUIS INTL  LGT RAIN  58  53  84 N8        29.59R
6HR MIN TEMP:  58; 6HR MAX TEMP:  69; 6HR PCP:  0.29;

SPIRIT OF STL  CLOUDY    57  54  89 NE7       29.58R
6HR MIN TEMP:  57; 6HR MAX TEMP:  67; 6HR PCP:  0.33;

ST CHARLES     LGT RAIN  55  52  89 NE13      29.59R FOG
6HR MIN TEMP:  55; 6HR MAX TEMP:  67; 6HR PCP:  0.32;


$$
MOZ072>076-082>087-097>100-106>115-260100-
...SOUTH CENTRAL AND SOUTHEAST MISSOURI...

CITY           SKY/WX    TMP DP  RH WIND       PRES   REMARKS
CAPE GIRARDEAU PTCLDY    68  59  73 N15G23    29.53R
6HR MIN TEMP:  68; 6HR MAX TEMP:  79;

FARMINGTON     CLOUDY    63  57  82 NW6       29.60R
6HR MIN TEMP:  63; 6HR MAX TEMP:  77;

POPLAR BLUFF   CLOUDY    77  50  38 NW9       29.49R
6HR MIN TEMP:  73; 6HR MAX TEMP:  83;

WEST PLAINS    CLOUDY    73  50  44 NW10G18   29.57R
6HR MIN TEMP:  73; 6HR MAX TEMP:  80;


$$



USA.gov is the U.S. government's official web portal to all federal, state and local government web resources and services.